Borden, Ontario

10:04 AM EDT on April 21, 2018 (GMT -0400)
Borden

Weather History for CYBN - August, 2013

Change the Weather History Date:

Wednesday, August 28, 2013

  Actual Average Record
Temperature  
Mean Temperature 72 °F -  
Max Temperature 82 °F 69 °F 86 °F (2007)
Min Temperature 63 °F 47 °F 39 °F (2002)
Cooling Degree Days 8    
Growing Degree Days 22 (Base 50)    
Moisture  
Dew Point 65 °F    
Average Humidity 86    
Maximum Humidity 94    
Minimum Humidity 65    
Precipitation  
Precipitation 0.02 in - - ()
Sea Level Pressure  
Sea Level Pressure 29.90 in    
Wind  
Wind Speed 2 mph ()    
Max Wind Speed 12 mph    
Max Gust Speed -    
Visibility 3.7 miles    
Events Rain    
Averages and records for this station are not official NWS values.
T = Trace of Precipitation, MM = Missing Value Source: Averaged Metar Reports

Daily Weather History Graph

Daily Weather History Graph

Search for Another Location

Airport or City:

Astronomy

Aug. 28, 2013 Rise Set
Actual Time 6:38 AM EDT 8:02 PM EDT
Civil Twilight 6:08 AM EDT 8:32 PM EDT
Nautical Twilight 5:31 AM EDT 9:08 PM EDT
Astronomical Twilight 4:52 AM EDT 9:47 PM EDT
Moon No Moon Rise 2:45 PM EDT (8/28)
Length of Visible Light 14h 24m
Length of Day
13h 24m
Waning Gibbous, 47% of the Moon is Illuminated
Aug 28
Waning Gibbous
Sep 5
New
Sep 12
First Quarter
Sep 19
Full
Sep 26
Last Quarter

Hourly Weather History & Observations

Time (EDT) Temp. Heat Index Dew Point Humidity Pressure Visibility Wind Dir Wind Speed Gust Speed Precip Events Conditions
12:00 AM 68.0 °F - 66.2 °F 94% 29.90 in 1.8 mi Calm Calm - N/A   Mostly Cloudy
12:05 AM 68.0 °F - 64.4 °F 88% 29.90 in 1.1 mi Calm Calm - N/A   Mostly Cloudy
12:07 AM 68.0 °F - 64.4 °F 88% 29.90 in 1.0 mi Calm Calm - N/A   Mostly Cloudy
12:09 AM 68.0 °F - 66.2 °F 94% 29.90 in 0.6 mi Calm Calm - N/A   Mostly Cloudy
12:18 AM 68.0 °F - 66.2 °F 94% 29.90 in 0.4 mi Calm Calm - N/A   Scattered Clouds
12:25 AM 68.0 °F - 64.4 °F 88% 29.90 in 0.2 mi Calm Calm - N/A   Mostly Cloudy
12:28 AM 68.0 °F - 64.4 °F 88% 29.90 in 0.1 mi Calm Calm - N/A   Unknown
1:00 AM 66.2 °F - 62.6 °F 88% 29.89 in 0.1 mi Calm Calm - N/A   Unknown
1:29 AM 66.2 °F - 62.6 °F 88% 29.89 in 0.4 mi Calm Calm - N/A   Clear
1:33 AM 66.2 °F - 62.6 °F 88% 29.89 in 0.2 mi Calm Calm - N/A   Mostly Cloudy
1:37 AM 66.2 °F - 62.6 °F 88% 29.89 in 0.1 mi WNW 2.3 mph - N/A   Unknown
2:00 AM 66.2 °F - 62.6 °F 88% 29.88 in 0.1 mi Calm Calm - N/A   Mostly Cloudy
2:02 AM 66.2 °F - 62.6 °F 88% 29.88 in 0.1 mi Calm Calm - N/A   Partly Cloudy
2:39 AM 66.2 °F - 64.4 °F 94% 29.88 in 0.5 mi Calm Calm - N/A   Overcast
2:48 AM 66.2 °F - 64.4 °F 94% 29.88 in 1.0 mi Calm Calm - N/A   Overcast
2:49 AM 66.2 °F - 64.4 °F 94% 29.88 in 1.0 mi Calm Calm - N/A   Overcast
2:55 AM 66.2 °F - 64.4 °F 94% 29.88 in 1.4 mi Calm Calm - N/A   Mostly Cloudy
2:56 AM 66.2 °F - 64.4 °F 94% 29.88 in 3.0 mi Calm Calm - N/A   Mostly Cloudy
3:00 AM 66.2 °F - 64.4 °F 94% 29.87 in 3.0 mi Calm Calm - N/A   Overcast
3:01 AM 66.2 °F - 64.4 °F 94% 29.88 in 2.5 mi Calm Calm - N/A   Overcast
3:21 AM 66.2 °F - 64.4 °F 94% 29.87 in 3.0 mi Calm Calm - N/A   Overcast
3:22 AM 66.2 °F - 64.4 °F 94% 29.87 in 2.4 mi Calm Calm - N/A   Overcast
3:34 AM 66.2 °F - 64.4 °F 94% 29.87 in 1.4 mi Calm Calm - N/A   Unknown
3:38 AM 66.2 °F - 64.4 °F 94% 29.86 in 0.6 mi Calm Calm - N/A   Overcast
3:41 AM 66.2 °F - 64.4 °F 94% 29.87 in 0.4 mi ENE 2.3 mph - N/A   Overcast
4:00 AM 66.2 °F - 64.4 °F 94% 29.86 in 0.4 mi Calm Calm - N/A   Unknown
4:04 AM 66.2 °F - 64.4 °F 94% 29.87 in 0.6 mi Calm Calm - N/A   Unknown
4:07 AM 66.2 °F - 64.4 °F 94% 29.86 in 0.4 mi Calm Calm - N/A   Unknown
4:12 AM 66.2 °F - 64.4 °F 94% 29.86 in 0.1 mi ENE 2.3 mph - N/A   Unknown
5:00 AM 64.4 °F - 62.6 °F 94% 29.86 in 0.1 mi NW 2.3 mph - N/A   Unknown
6:00 AM 64.4 °F - 62.6 °F 94% 29.88 in 0.5 mi Calm Calm - N/A   Unknown
6:10 AM 64.4 °F - 62.6 °F 94% 29.88 in 0.4 mi Calm Calm - N/A   Unknown
6:18 AM 64.4 °F - 60.8 °F 88% 29.89 in 0.1 mi Calm Calm - N/A   Unknown
6:47 AM 62.6 °F - 60.8 °F 94% 29.89 in 0.2 mi WSW 2.3 mph - N/A   Unknown
7:00 AM 62.6 °F - 60.8 °F 94% 29.89 in 0.4 mi Calm Calm - N/A   Unknown
7:09 AM 64.4 °F - 60.8 °F 88% 29.89 in 0.1 mi Calm Calm - N/A   Unknown
8:00 AM 65 °F - 62 °F 88% 29.90 in 0 mi NNE 2.3 mph - -  
8:00 AM 64.4 °F - 62.6 °F 94% 29.90 in 0.1 mi NNE 2.3 mph - N/A   Unknown
8:14 AM 66.2 °F - 62.6 °F 88% 29.90 in 0.5 mi North 2.3 mph - N/A   Unknown
8:28 AM 66.2 °F - 64.4 °F 94% 29.90 in 1.0 mi NNE 2.3 mph - N/A   Unknown
8:44 AM 68.0 °F - 64.4 °F 88% 29.90 in 1.0 mi Calm Calm - N/A   Overcast
8:50 AM 68.0 °F - 64.4 °F 88% 29.90 in 0.6 mi North 3.5 mph - N/A   Unknown
8:57 AM 68.0 °F - 64.4 °F 88% 29.91 in 0.4 mi NNW 3.5 mph - N/A   Unknown
9:00 AM 68.0 °F - 64.4 °F 88% 29.91 in 0.4 mi North 2.3 mph - N/A   Unknown
9:39 AM 69.8 °F - 66.2 °F 88% 29.91 in 0.8 mi North 4.6 mph - N/A   Overcast
9:48 AM 69.8 °F - 66.2 °F 88% 29.91 in 1.5 mi NNW 3.5 mph - N/A   Overcast
9:55 AM 69.8 °F - 66.2 °F 88% 29.91 in 2.5 mi North 2.3 mph - N/A   Overcast
10:00 AM 69.8 °F - 68.0 °F 94% 29.91 in 2.5 mi North 3.5 mph - N/A   Overcast
10:04 AM 69.8 °F - 68.0 °F 94% 29.91 in 6.0 mi North 3.5 mph - N/A   Overcast
10:11 AM 69.8 °F - 68.0 °F 94% 29.91 in 8.0 mi North 3.5 mph - N/A   Overcast
10:37 AM 71.6 °F - 68.0 °F 88% 29.91 in 9.0 mi NE 5.8 mph - N/A   Overcast
10:57 AM 71.6 °F - 68.0 °F 88% 29.91 in 9.0 mi NE 4.6 mph - N/A   Overcast
11:00 AM 71.6 °F - 68.0 °F 88% 29.91 in 9.0 mi NNE 2.3 mph - N/A   Overcast
11:50 AM 75.2 °F - 68.0 °F 78% 29.92 in 9.0 mi North 4.6 mph - N/A   Overcast
12:00 PM 78.8 °F - 69.8 °F 74% 29.92 in 9.0 mi NNE 3.5 mph - N/A   Mostly Cloudy
12:15 PM 78.8 °F - 69.8 °F 74% 29.92 in 9.0 mi NNW 6.9 mph - N/A   Scattered Clouds
12:17 PM 78.8 °F - 69.8 °F 74% 29.92 in 9.0 mi NNW 5.8 mph - N/A   Mostly Cloudy
12:25 PM 77.0 °F - 68.0 °F 74% 29.92 in 9.0 mi NNE 4.6 mph - N/A   Mostly Cloudy
1:00 PM 80.6 °F 83.2 °F 68.0 °F 65% 29.91 in 9.0 mi NE 3.5 mph - N/A   Mostly Cloudy
1:02 PM 80.6 °F 83.2 °F 68.0 °F 65% 29.91 in 9.0 mi North 3.5 mph - N/A   Scattered Clouds
1:21 PM 80.6 °F 83.9 °F 69.8 °F 70% 29.91 in 9.0 mi North 8.1 mph - N/A   Mostly Cloudy
1:51 PM 78.8 °F - 69.8 °F 74% 29.92 in 9.0 mi North 8.1 mph - N/A Rain Rain
2:00 PM 77 °F - 70 °F 74% 29.92 in 7 mi North 6.9 mph - -   Unknown Precipitation
2:00 PM 77.0 °F - 69.8 °F 78% 29.92 in 7.0 mi North 8.1 mph - N/A Rain Rain
2:10 PM 78.8 °F - 69.8 °F 74% 29.92 in 9.0 mi North 10.4 mph - N/A   Overcast
2:35 PM 80.6 °F 83.9 °F 69.8 °F 70% 29.92 in 9.0 mi NNW 9.2 mph - N/A   Partly Cloudy
3:00 PM 80.6 °F 83.9 °F 69.8 °F 70% 29.92 in 9.0 mi North 11.5 mph - N/A   Partly Cloudy
4:00 PM 82.4 °F 86.3 °F 69.8 °F 66% 29.91 in 9.0 mi North 11.5 mph - N/A   Clear
5:00 PM 82.4 °F 86.3 °F 69.8 °F 66% 29.92 in 9.0 mi NNW 5.8 mph - N/A   Partly Cloudy
6:00 PM 78.8 °F - 68.0 °F 69% 29.92 in 9.0 mi North 8.1 mph - N/A   Clear
7:00 PM 75.2 °F - 66.2 °F 73% 29.94 in 9.0 mi North 5.8 mph - N/A   Clear
8:00 PM 73.4 °F - 66.2 °F 78% 29.96 in 9.0 mi Calm Calm - N/A   Clear
9:00 PM 69.8 °F - 64.4 °F 83% 29.97 in 9.0 mi Calm Calm - N/A   Clear
10:00 PM 68.0 °F - 64.4 °F 88% 29.99 in 9.0 mi Calm Calm - N/A   Clear
11:00 PM 66.2 °F - 62.6 °F 88% 30.00 in 9.0 mi North 2.3 mph - N/A   Clear